Regional Weather Roundup
Issued by NWS

Home | Current Version | Previous Version | Text Only | Print | Product List | Glossary Off
Versions: 1 2 3 4 5 6 7 8 9 10 11 12 13 14 15 16 17 18 19 20 21 22 23 24 25 26 27 28 29 30 31 32 33 34 35 36 37 38 39 40 41 42 43 44 45 46 47 48 49 50

297
ASUS44 KLIX 180305
RWRLA
LOUISIANA WEATHER ROUNDUP
NATIONAL WEATHER SERVICE NEW ORLEANS LA
900 PM CST WED DEC 17 2014

NOTE: "FAIR" INDICATES FEW OR NO CLOUDS BELOW 12,000 FEET WITH NO
      SIGNIFICANT WEATHER AND/OR OBSTRUCTIONS TO VISIBILITY.
      SKY/WX - SKY CONDITION AND SIGNIFICANT WEATHER.
      TMP - AIR TEMPERATURE.    DP   - DEWPOINT TEMPERATURE.
      RH  - RELATIVE HUMIDITY.  PRES - PRESSURE.
      HX  - HEAT INDEX.         WCI  - WIND CHILL INDEX.

*  THESE STATIONS ARE NOT NWS OR FAA STATIONS AND ARE NOT UNDER
   NWS QUALITY CONTROL.

LAZ040-048-061>063-065-066-069-180400-
SOUTHEAST LOUISIANA

CITY           SKY/WX    TMP DP  RH WIND       PRES   REMARKS
N.O. AUDUBON     N/A     52  44  74 MISG        N/A
N.O. INTL ARPT CLOUDY    52  41  66 CALM      30.20S
N.O. LAKEFRONT MOCLDY    53  43  68 SE3       30.21S
N.O. DOWNTOWN* FAIR      55  39  54 SE3       30.21S
SLIDELL        MOCLDY    44  41  89 CALM      30.20S
BATON ROUGE    MOCLDY    49  42  77 E6        30.19S
BOOTHVILLE     MOCLDY    54  49  83 E3        30.20F
BELLE CHASSE   CLOUDY    46  42  86 CALM      30.20S
BOGALUSA*        N/A     45  42  88 N3        30.22R
GALLIANO*      CLOUDY    55  49  81 MISG      30.21R
NEW ROADS*     FAIR      51  41  69 E5        30.18F
GONZALES*      FAIR      49  44  83 CALM      30.19F
HAMMOND*       NOT AVBL
HOUMA*         CLOUDY    49  45  88 NE3       30.20R
PORT FOURCHON* CLEAR     59  52  77 E7        30.22S

$$

LAZ041-044-053-054-180400-
SOUTHWEST LOUISIANA

CITY           SKY/WX    TMP DP  RH WIND       PRES   REMARKS
LAKE CHARLES   PTCLDY    52  44  74 E6        30.14S
LAFAYETTE      MOCLDY    53  40  61 VRB5      30.15F
PATTERSON      CLOUDY    52  43  71 CALM      30.19S
SALT POINT       N/A     53  46  77 CALM      30.17S
NEW IBERIA     CLOUDY    50  42  74 E7        30.17F
CHENAULT AIRPK PTCLDY    51  44  77 CALM      30.15R

$$

LAZ027-028-180400-
CENTRAL LOUISIANA

CITY           SKY/WX    TMP DP  RH WIND       PRES   REMARKS
FORT POLK      NOT AVBL
ALEXANDRIA INT CLOUDY    49  41  74 E6        30.15S
ALEXANDRIA     CLOUDY    47  41  80 CALM      30.17S

$$

LAZ001-002-180400-
NORTHWEST LOUISIANA

CITY           SKY/WX    TMP DP  RH WIND       PRES   REMARKS
SHREVEPORT     CLOUDY    48  39  71 NE8       30.17S
BARKSDALE AFB  NOT AVBL
DTN SHREVEPORT CLOUDY    46  37  71 NE5       30.20R

$$

LAZ014-016-180400-
NORTHEAST LOUISIANA

CITY           SKY/WX    TMP DP  RH WIND       PRES   REMARKS
MONROE         MOCLDY    45  39  79 N6        30.22R
TALLULAH       MOCLDY    46  38  73 NE6       30.20F

$$




USA.gov is the U.S. government's official web portal to all federal, state and local government web resources and services.